Wheeling, WV

1:40 AM EST on November 25, 2017 (GMT -0500)
Wheeling-Ohio County

Weather History for KHLG - September, 2013

Change the Weather History Date:

Tuesday, September 3, 2013

  Actual Average Record
Temperature  
Mean Temperature 63 °F 68 °F  
Max Temperature 72 °F 78 °F 97 °F (1930)
Min Temperature 54 °F 58 °F 38 °F (1946)
Degree Days  
Heating Degree Days 2 1  
Month to date heating degree days 2 3  
Since 1 July heating degree days 18 14  
Cooling Degree Days 0    
Month to date cooling degree days 18  
Year to date cooling degree days 653  
Growing Degree Days 15 (Base 50)    
Moisture  
Dew Point 59 °F    
Average Humidity 79    
Maximum Humidity 100    
Minimum Humidity 57    
Precipitation  
Precipitation 0.00 in 0.09 in 1.13 in (1923)
Month to date precipitation 0.37 0.26  
Year to date precipitation 27.76  
Sea Level Pressure  
Sea Level Pressure 29.94 in    
Wind  
Wind Speed 5 mph (NW)    
Max Wind Speed 15 mph    
Max Gust Speed 20 mph    
Visibility 5 miles    
Events Fog    
T = Trace of Precipitation, MM = Missing Value Source: NWS Daily Summary

Daily Weather History Graph

Daily Weather History Graph

Search for Another Location

Airport or City:

Trip Planner

Search our weather history database for the weather conditions in past years. The results will help you decide how hot, cold, wet, or windy it might be!

Date:

Astronomy

Sep. 03, 2013 Rise Set
Actual Time 6:52 AM EDT 7:50 PM EDT
Civil Twilight 6:24 AM EDT 8:18 PM EDT
Nautical Twilight 5:51 AM EDT 8:51 PM EDT
Astronomical Twilight 5:17 AM EDT 9:25 PM EDT
Moon 5:04 AM EDT (9/3) 6:37 PM EDT (9/3)
Length of Visible Light 13h 53m
Length of Day
12h 58m
Waning Crescent, 3% of the Moon is Illuminated
Sep 3
Waning Crescent
Sep 5
New
Sep 12
First Quarter
Sep 19
Full
Sep 26
Last Quarter

Hourly Weather History & Observations

Time (EDT) Temp. Dew Point Humidity Pressure Visibility Wind Dir Wind Speed Gust Speed Precip Events Conditions
12:12 AM 62.6 °F 62.6 °F 100% 29.89 in 0.2 mi Calm Calm - N/A Fog Fog
12:23 AM 62.6 °F 62.6 °F 100% 29.89 in 0.2 mi South 3.5 mph - N/A Fog Fog
12:53 AM 62.1 °F 62.1 °F 100% 29.87 in 0.2 mi Calm Calm - N/A Fog Fog
1:02 AM 62.6 °F 62.6 °F 100% 29.88 in 0.2 mi Calm Calm - N/A Fog Fog
1:09 AM 62.6 °F 62.6 °F 100% 29.88 in 0.2 mi Calm Calm - N/A Fog Fog
1:17 AM 62.6 °F 62.6 °F 100% 29.89 in 0.2 mi Calm Calm - N/A Fog Fog
1:53 AM 63.0 °F 63.0 °F 100% 29.87 in 0.2 mi Calm Calm - N/A Fog Fog
2:53 AM 62.1 °F 62.1 °F 100% 29.86 in 0.2 mi Calm Calm - N/A Fog Fog
3:24 AM 62.6 °F 62.6 °F 100% 29.87 in 0.2 mi Calm Calm - N/A Fog Fog
3:44 AM 62.6 °F 60.8 °F 94% 29.87 in 1.0 mi West 3.5 mph - N/A   Mist
3:47 AM 62.6 °F 60.8 °F 94% 29.87 in 4.0 mi Calm Calm - N/A   Mostly Cloudy
3:53 AM 61.0 °F 61.0 °F 100% 29.86 in 8.0 mi WNW 3.5 mph - N/A   Scattered Clouds
4:34 AM 60.8 °F 60.8 °F 100% 29.88 in 1.2 mi Calm Calm - N/A   Partly Cloudy
4:37 AM 60.8 °F 60.8 °F 100% 29.89 in 0.5 mi WNW 3.5 mph - N/A Fog Fog
4:53 AM 60.1 °F 60.1 °F 100% 29.88 in 0.2 mi West 3.5 mph - N/A Fog Fog
5:08 AM 60.8 °F 60.8 °F 100% 29.89 in 1.0 mi WNW 3.5 mph - N/A   Mist
5:12 AM 60.8 °F 60.8 °F 100% 29.90 in 3.0 mi West 3.5 mph - N/A   Mostly Cloudy
5:18 AM 60.8 °F 60.8 °F 100% 29.90 in 0.8 mi Calm Calm - N/A   Mist
5:22 AM 60.8 °F 60.8 °F 100% 29.90 in 0.2 mi West 3.5 mph - N/A Fog Fog
5:29 AM 60.8 °F 60.8 °F 100% 29.90 in 0.2 mi WSW 3.5 mph - N/A Fog Fog
5:42 AM 60.8 °F 60.8 °F 100% 29.90 in 0.2 mi Calm Calm - 0.01 in Fog Fog
5:53 AM 60.1 °F 60.1 °F 100% 29.89 in 0.2 mi Calm Calm - 0.01 in Fog Fog
6:12 AM 60.8 °F 60.8 °F 100% 29.91 in 0.2 mi West 3.5 mph - N/A Fog Fog
6:24 AM 60.8 °F 60.8 °F 100% 29.91 in 1.0 mi NW 3.5 mph - N/A   Overcast
6:41 AM 60.8 °F 60.8 °F 100% 29.91 in 2.5 mi NW 5.8 mph - N/A   Overcast
6:53 AM 60.1 °F 60.1 °F 100% 29.91 in 2.0 mi NW 4.6 mph - N/A   Overcast
7:03 AM 60.8 °F 60.8 °F 100% 29.92 in 1.8 mi NW 4.6 mph - N/A   Overcast
7:12 AM 60.8 °F 60.8 °F 100% 29.93 in 2.5 mi NNW 3.5 mph - N/A   Overcast
7:29 AM 60.8 °F 60.8 °F 100% 29.93 in 3.0 mi NNW 3.5 mph - N/A   Overcast
7:36 AM 60.8 °F 60.8 °F 100% 29.94 in 3.0 mi NNW 4.6 mph - N/A   Overcast
7:53 AM 60.1 °F 60.1 °F 100% 29.94 in 3.0 mi NNW 3.5 mph - N/A   Overcast
8:48 AM 60.8 °F 60.8 °F 100% 29.96 in 8.0 mi NNW 5.8 mph - N/A   Overcast
8:53 AM 61.0 °F 60.1 °F 97% 29.96 in 8.0 mi NNW 4.6 mph - N/A   Overcast
9:03 AM 60.8 °F 60.8 °F 100% 29.96 in 8.0 mi Variable 3.5 mph - N/A   Mostly Cloudy
9:33 AM 62.6 °F 60.8 °F 94% 29.97 in 10.0 mi North 4.6 mph - N/A   Overcast
9:42 AM 62.6 °F 59.0 °F 88% 29.97 in 10.0 mi NNW 5.8 mph - N/A   Overcast
9:53 AM 63.0 °F 60.1 °F 90% 29.97 in 10.0 mi NNW 3.5 mph - N/A   Overcast
10:04 AM 64.4 °F 60.8 °F 88% 29.97 in 10.0 mi Variable 4.6 mph - N/A   Mostly Cloudy
10:12 AM 64.4 °F 59.0 °F 83% 29.98 in 10.0 mi NNW 5.8 mph - N/A   Mostly Cloudy
10:25 AM 64.4 °F 59.0 °F 83% 29.98 in 10.0 mi WNW 5.8 mph - N/A   Mostly Cloudy
10:33 AM 64.4 °F 60.8 °F 88% 29.98 in 10.0 mi NNW 6.9 mph - N/A   Mostly Cloudy
10:53 AM 66.0 °F 57.9 °F 75% 29.97 in 10.0 mi North 5.8 mph - N/A   Mostly Cloudy
11:53 AM 66.9 °F 55.9 °F 68% 29.99 in 10.0 mi WNW 9.2 mph - N/A   Mostly Cloudy
12:53 PM 68.0 °F 54.0 °F 61% 29.99 in 10.0 mi WNW 10.4 mph - N/A   Scattered Clouds
1:53 PM 68.0 °F 55.0 °F 63% 29.98 in 10.0 mi WNW 6.9 mph - N/A   Mostly Cloudy
2:53 PM 71.1 °F 55.9 °F 59% 29.97 in 10.0 mi NW 9.2 mph - N/A   Mostly Cloudy
3:53 PM 68.0 °F 54.0 °F 61% 29.98 in 10.0 mi WNW 10.4 mph - N/A   Overcast
4:53 PM 69.1 °F 55.0 °F 61% 29.99 in 10.0 mi NNW 12.7 mph 19.6 mph N/A   Overcast
5:53 PM 66.0 °F 54.0 °F 65% 30.00 in 10.0 mi NNW 12.7 mph 19.6 mph N/A   Partly Cloudy
6:53 PM 64.0 °F 53.1 °F 67% 30.01 in 10.0 mi NW 9.2 mph - N/A   Clear
7:53 PM 61.0 °F 54.0 °F 78% 30.03 in 10.0 mi NNW 5.8 mph - N/A   Clear
8:53 PM 60.1 °F 54.0 °F 80% 30.05 in 10.0 mi Calm Calm - N/A   Scattered Clouds
9:24 PM 60.8 °F 53.6 °F 77% 30.06 in 10.0 mi Calm Calm - N/A   Mostly Cloudy
9:48 PM 59.0 °F 53.6 °F 82% 30.07 in 10.0 mi NW 4.6 mph - N/A   Overcast
9:53 PM 59.0 °F 54.0 °F 83% 30.07 in 10.0 mi NW 3.5 mph - N/A   Overcast
10:53 PM 59.0 °F 54.0 °F 83% 30.07 in 10.0 mi Calm Calm - N/A   Mostly Cloudy
11:53 PM 54.0 °F 54.0 °F 100% 30.07 in 6.0 mi Calm Calm - N/A   Clear